Time,TemperatureF,DewpointF,PressureIn,WindDirection,WindDirectionDegrees,WindSpeedMPH,WindSpeedGustMPH,Humidity,HourlyPrecipIn,Conditions,Clouds,dailyrainin,SolarRadiationWatts/m^2,SoftwareType,DateUTC
2013-05-14 00:00:00,65.0,30.0,-100.00,WNW,283,2.0,12.0,27,0.00,,,0.00,0.000000,,2013-05-14 07:00:00,
2013-05-14 00:32:00,65.0,30.0,-100.00,WNW,283,2.0,12.0,27,0.00,,,0.00,0.000000,,2013-05-14 07:32:00,
2013-05-14 00:42:00,65.0,30.0,-100.00,WNW,283,2.0,12.0,27,0.00,,,0.00,0.000000,,2013-05-14 07:42:00,
2013-05-14 00:52:00,65.0,30.0,-100.00,WNW,283,2.0,12.0,27,0.00,,,0.00,0.000000,,2013-05-14 07:52:00,
2013-05-14 01:00:00,65.0,30.0,-100.00,WSW,255,4.0,9.0,27,0.00,,,0.00,0.000000,,2013-05-14 08:00:00,
2013-05-14 01:22:00,65.0,30.0,-100.00,WSW,255,4.0,9.0,27,0.00,,,0.00,0.000000,,2013-05-14 08:22:00,
2013-05-14 01:32:00,65.0,30.0,-100.00,WSW,255,4.0,9.0,27,0.00,,,0.00,0.000000,,2013-05-14 08:32:00,
2013-05-14 01:42:00,65.0,30.0,-100.00,WSW,255,4.0,9.0,27,0.00,,,0.00,0.000000,,2013-05-14 08:42:00,
2013-05-14 01:52:00,65.0,30.0,-100.00,WSW,255,4.0,9.0,27,0.00,,,0.00,0.000000,,2013-05-14 08:52:00,
2013-05-14 02:00:00,65.0,27.0,-100.00,WSW,239,4.0,6.0,24,0.00,,,0.00,0.000000,,2013-05-14 09:00:00,
2013-05-14 02:32:00,65.0,27.0,-100.00,WSW,239,4.0,6.0,24,0.00,,,0.00,0.000000,,2013-05-14 09:32:00,
2013-05-14 02:44:00,65.0,27.0,-100.00,WSW,239,4.0,6.0,24,0.00,,,0.00,0.000000,,2013-05-14 09:44:00,
2013-05-14 02:54:00,65.0,27.0,-100.00,WSW,239,4.0,6.0,24,0.00,,,0.00,0.000000,,2013-05-14 09:54:00,
2013-05-14 03:00:00,64.0,26.0,-100.00,WNW,285,2.0,9.0,24,0.00,,,-99.99,0.000000,,2013-05-14 10:00:00,
2013-05-14 03:33:00,64.0,26.0,-100.00,WNW,285,2.0,9.0,24,0.00,,,-99.99,0.000000,,2013-05-14 10:33:00,
2013-05-14 03:42:00,64.0,26.0,-100.00,WNW,285,2.0,9.0,24,0.00,,,-99.99,0.000000,,2013-05-14 10:42:00,
2013-05-14 03:52:00,64.0,26.0,-100.00,WNW,285,2.0,9.0,24,0.00,,,-99.99,0.000000,,2013-05-14 10:52:00,
2013-05-14 04:00:00,63.0,30.0,-100.00,NNE,32,0.0,6.0,29,0.00,,,0.00,0.000000,,2013-05-14 11:00:00,
2013-05-14 04:32:00,63.0,30.0,-100.00,NNE,32,0.0,6.0,29,0.00,,,0.00,0.000000,,2013-05-14 11:32:00,
2013-05-14 04:43:00,63.0,30.0,-100.00,NNE,32,0.0,6.0,29,0.00,,,0.00,0.000000,,2013-05-14 11:43:00,
2013-05-14 04:53:00,63.0,30.0,-100.00,NNE,32,0.0,6.0,29,0.00,,,0.00,0.000000,,2013-05-14 11:53:00,
2013-05-14 05:00:00,62.0,27.0,-100.00,West,260,2.0,4.0,26,0.00,,,0.00,0.000000,,2013-05-14 12:00:00,
2013-05-14 05:22:00,62.0,27.0,-100.00,West,260,2.0,4.0,26,0.00,,,0.00,0.000000,,2013-05-14 12:22:00,
2013-05-14 05:32:00,62.0,27.0,-100.00,West,260,2.0,4.0,26,0.00,,,0.00,0.000000,,2013-05-14 12:32:00,
2013-05-14 05:42:00,62.0,27.0,-100.00,West,260,2.0,4.0,26,0.00,,,0.00,0.000000,,2013-05-14 12:42:00,
2013-05-14 05:52:00,62.0,27.0,-100.00,West,260,2.0,4.0,26,0.00,,,0.00,0.000000,,2013-05-14 12:52:00,
2013-05-14 06:00:00,63.0,31.0,-100.00,ENE,64,2.0,6.0,30,0.00,,,0.00,0.000000,,2013-05-14 13:00:00,
2013-05-14 06:22:00,63.0,31.0,-100.00,ENE,64,2.0,6.0,30,0.00,,,0.00,0.000000,,2013-05-14 13:22:00,
2013-05-14 06:32:00,63.0,31.0,-100.00,ENE,64,2.0,6.0,30,0.00,,,0.00,0.000000,,2013-05-14 13:32:00,
2013-05-14 06:42:00,63.0,31.0,-100.00,ENE,64,2.0,6.0,30,0.00,,,0.00,0.000000,,2013-05-14 13:42:00,
2013-05-14 06:52:00,63.0,31.0,-100.00,ENE,64,2.0,6.0,30,0.00,,,0.00,0.000000,,2013-05-14 13:52:00,
2013-05-14 07:00:00,61.0,25.0,-100.00,NNE,29,1.0,6.0,25,0.00,,,-99.99,1.000000,,2013-05-14 14:00:00,
2013-05-14 07:22:00,61.0,25.0,-100.00,NNE,29,1.0,6.0,25,0.00,,,-99.99,1.000000,,2013-05-14 14:22:00,
2013-05-14 07:32:00,61.0,25.0,-100.00,NNE,29,1.0,6.0,25,0.00,,,-99.99,1.000000,,2013-05-14 14:32:00,
2013-05-14 07:42:00,61.0,25.0,-100.00,NNE,29,1.0,6.0,25,0.00,,,-99.99,1.000000,,2013-05-14 14:42:00,
2013-05-14 07:52:00,61.0,25.0,-100.00,NNE,29,1.0,6.0,25,0.00,,,-99.99,1.000000,,2013-05-14 14:52:00,
2013-05-14 08:00:00,65.0,25.0,-100.00,WNW,288,0.0,5.0,22,0.00,,,0.00,36.000000,,2013-05-14 15:00:00,
2013-05-14 08:33:00,65.0,25.0,-100.00,WNW,288,0.0,5.0,22,0.00,,,0.00,36.000000,,2013-05-14 15:33:00,
2013-05-14 08:43:00,65.0,25.0,-100.00,WNW,288,0.0,5.0,22,0.00,,,0.00,36.000000,,2013-05-14 15:43:00,
2013-05-14 08:53:00,65.0,25.0,-100.00,WNW,288,0.0,5.0,22,0.00,,,0.00,36.000000,,2013-05-14 15:53:00,
2013-05-14 09:00:00,71.0,25.0,-100.00,ENE,69,2.0,5.0,18,0.00,,,0.00,288.000000,,2013-05-14 16:00:00,
2013-05-14 09:33:00,71.0,25.0,-100.00,ENE,69,2.0,5.0,18,0.00,,,0.00,288.000000,,2013-05-14 16:33:00,
2013-05-14 09:44:00,71.0,25.0,-100.00,ENE,69,2.0,5.0,18,0.00,,,0.00,288.000000,,2013-05-14 16:44:00,
2013-05-14 09:54:00,71.0,25.0,-100.00,ENE,69,2.0,5.0,18,0.00,,,0.00,288.000000,,2013-05-14 16:54:00,
2013-05-14 10:00:00,76.0,13.0,-100.00,WSW,245,9.0,11.0,9,0.00,,,0.00,590.000000,,2013-05-14 17:00:00,
2013-05-14 10:24:00,76.0,13.0,-100.00,WSW,245,9.0,11.0,9,0.00,,,0.00,590.000000,,2013-05-14 17:24:00,
2013-05-14 10:33:00,76.0,13.0,-100.00,WSW,245,9.0,11.0,9,0.00,,,0.00,590.000000,,2013-05-14 17:33:00,
2013-05-14 10:43:00,76.0,13.0,-100.00,WSW,245,9.0,11.0,9,0.00,,,0.00,590.000000,,2013-05-14 17:43:00,
2013-05-14 10:52:00,76.0,13.0,-100.00,WSW,245,9.0,11.0,9,0.00,,,0.00,590.000000,,2013-05-14 17:52:00,
2013-05-14 11:00:00,78.0,12.0,-100.00,South,189,9.0,28.0,8,0.00,,,-99.99,806.000000,,2013-05-14 18:00:00,
2013-05-14 11:32:00,78.0,12.0,-100.00,South,189,9.0,28.0,8,0.00,,,-99.99,806.000000,,2013-05-14 18:32:00,
2013-05-14 11:42:00,78.0,12.0,-100.00,South,189,9.0,28.0,8,0.00,,,-99.99,806.000000,,2013-05-14 18:42:00,
2013-05-14 11:52:00,78.0,12.0,-100.00,South,189,9.0,28.0,8,0.00,,,-99.99,806.000000,,2013-05-14 18:52:00,
2013-05-14 12:00:00,80.0,10.0,-100.00,South,183,9.0,22.0,7,0.00,,,0.00,982.000000,,2013-05-14 19:00:00,
2013-05-14 12:32:00,80.0,10.0,-100.00,South,183,9.0,22.0,7,0.00,,,0.00,982.000000,,2013-05-14 19:32:00,
2013-05-14 12:42:00,80.0,10.0,-100.00,South,183,9.0,22.0,7,0.00,,,0.00,982.000000,,2013-05-14 19:42:00,
2013-05-14 12:52:00,80.0,10.0,-100.00,South,183,9.0,22.0,7,0.00,,,0.00,982.000000,,2013-05-14 19:52:00,
2013-05-14 13:00:00,80.0,21.0,-100.00,NW,308,4.0,25.0,11,0.00,,,0.00,1093.000000,,2013-05-14 20:00:00,
2013-05-14 13:33:00,80.0,21.0,-100.00,NW,308,4.0,25.0,11,0.00,,,0.00,1093.000000,,2013-05-14 20:33:00,
2013-05-14 13:44:00,80.0,21.0,-100.00,NW,308,4.0,25.0,11,0.00,,,0.00,1093.000000,,2013-05-14 20:44:00,
2013-05-14 13:52:00,80.0,21.0,-100.00,NW,308,4.0,25.0,11,0.00,,,0.00,1093.000000,,2013-05-14 20:52:00,
2013-05-14 14:00:00,85.0,25.0,-100.00,NW,309,11.0,31.0,11,0.00,,,0.00,1139.000000,,2013-05-14 21:00:00,
2013-05-14 14:34:00,85.0,25.0,-100.00,NW,309,11.0,31.0,11,0.00,,,0.00,1139.000000,,2013-05-14 21:34:00,
2013-05-14 14:43:00,85.0,25.0,-100.00,NW,309,11.0,31.0,11,0.00,,,0.00,1139.000000,,2013-05-14 21:43:00,
2013-05-14 14:53:00,85.0,25.0,-100.00,NW,309,11.0,31.0,11,0.00,,,0.00,1139.000000,,2013-05-14 21:53:00,
2013-05-14 15:00:00,81.0,27.0,-100.00,North,357,7.0,28.0,14,-99.99,,,0.00,1113.000000,,2013-05-14 22:00:00,
2013-05-14 15:34:00,81.0,27.0,-100.00,North,357,7.0,28.0,14,-99.99,,,0.00,1113.000000,,2013-05-14 22:34:00,
2013-05-14 15:45:00,81.0,27.0,-100.00,North,357,7.0,28.0,14,-99.99,,,0.00,1113.000000,,2013-05-14 22:45:00,
2013-05-14 15:54:00,81.0,27.0,-100.00,North,357,7.0,28.0,14,-99.99,,,0.00,1113.000000,,2013-05-14 22:54:00,
2013-05-14 16:00:00,81.0,24.0,-100.00,NW,319,6.0,19.0,12,0.00,,,0.00,1035.000000,,2013-05-14 23:00:00,
2013-05-14 16:32:00,81.0,24.0,-100.00,NW,319,6.0,19.0,12,0.00,,,0.00,1035.000000,,2013-05-14 23:32:00,
2013-05-14 16:44:00,81.0,24.0,-100.00,NW,319,6.0,19.0,12,0.00,,,0.00,1035.000000,,2013-05-14 23:44:00,
2013-05-14 16:52:00,81.0,24.0,-100.00,NW,319,6.0,19.0,12,0.00,,,0.00,1035.000000,,2013-05-14 23:52:00,
2013-05-14 17:00:00,75.0,19.0,-100.00,WNW,287,7.0,20.0,12,-99.99,,,0.00,905.000000,,2013-05-15 00:00:00,
2013-05-14 17:32:00,75.0,19.0,-100.00,WNW,287,7.0,20.0,12,-99.99,,,0.00,905.000000,,2013-05-15 00:32:00,
2013-05-14 17:42:00,75.0,19.0,-100.00,WNW,287,7.0,20.0,12,-99.99,,,0.00,905.000000,,2013-05-15 00:42:00,
2013-05-14 17:52:00,75.0,19.0,-100.00,WNW,287,7.0,20.0,12,-99.99,,,0.00,905.000000,,2013-05-15 00:52:00,
2013-05-14 18:00:00,76.0,22.0,-100.00,SE,128,8.0,21.0,13,0.00,,,0.00,729.000000,,2013-05-15 01:00:00,
2013-05-14 18:22:00,76.0,22.0,-100.00,SE,128,8.0,21.0,13,0.00,,,0.00,729.000000,,2013-05-15 01:22:00,
2013-05-14 18:32:00,76.0,22.0,-100.00,SE,128,8.0,21.0,13,0.00,,,0.00,729.000000,,2013-05-15 01:32:00,
2013-05-14 18:42:00,76.0,22.0,-100.00,SE,128,8.0,21.0,13,0.00,,,0.00,729.000000,,2013-05-15 01:42:00,
2013-05-14 18:52:00,76.0,22.0,-100.00,SE,128,8.0,21.0,13,0.00,,,0.00,729.000000,,2013-05-15 01:52:00,
2013-05-14 19:00:00,67.0,26.0,-100.00,WNW,298,11.0,26.0,21,-99.99,,,0.00,492.000000,,2013-05-15 02:00:00,
2013-05-14 19:22:00,67.0,26.0,-100.00,WNW,298,11.0,26.0,21,-99.99,,,0.00,492.000000,,2013-05-15 02:22:00,
2013-05-14 19:32:00,67.0,26.0,-100.00,WNW,298,11.0,26.0,21,-99.99,,,0.00,492.000000,,2013-05-15 02:32:00,
2013-05-14 19:42:00,67.0,26.0,-100.00,WNW,298,11.0,26.0,21,-99.99,,,0.00,492.000000,,2013-05-15 02:42:00,
2013-05-14 19:52:00,67.0,26.0,-100.00,WNW,298,11.0,26.0,21,-99.99,,,0.00,492.000000,,2013-05-15 02:52:00,
2013-05-14 20:00:00,65.0,20.0,-100.00,West,277,19.0,32.0,18,0.00,,,0.00,32.000000,,2013-05-15 03:00:00,
2013-05-14 20:33:00,65.0,20.0,-100.00,West,277,19.0,32.0,18,0.00,,,0.00,32.000000,,2013-05-15 03:33:00,
2013-05-14 20:44:00,65.0,20.0,-100.00,West,277,19.0,32.0,18,0.00,,,0.00,32.000000,,2013-05-15 03:44:00,
2013-05-14 20:54:00,65.0,20.0,-100.00,West,277,19.0,32.0,18,0.00,,,0.00,32.000000,,2013-05-15 03:54:00,
2013-05-14 21:00:00,60.0,29.0,-100.00,WNW,298,8.0,38.0,31,0.00,,,0.00,15.000000,,2013-05-15 04:00:00,
2013-05-14 21:33:00,60.0,29.0,-100.00,WNW,298,8.0,38.0,31,0.00,,,0.00,15.000000,,2013-05-15 04:33:00,
2013-05-14 21:43:00,60.0,29.0,-100.00,WNW,298,8.0,38.0,31,0.00,,,0.00,15.000000,,2013-05-15 04:43:00,
2013-05-14 21:52:00,60.0,29.0,-100.00,WNW,298,8.0,38.0,31,0.00,,,0.00,15.000000,,2013-05-15 04:52:00,
2013-05-14 22:00:00,58.0,32.0,-100.00,WNW,282,8.0,31.0,37,0.00,,,0.00,0.000000,,2013-05-15 05:00:00,
2013-05-14 22:32:00,58.0,32.0,-100.00,WNW,282,8.0,31.0,37,0.00,,,0.00,0.000000,,2013-05-15 05:32:00,
2013-05-14 22:42:00,58.0,32.0,-100.00,WNW,282,8.0,31.0,37,0.00,,,0.00,0.000000,,2013-05-15 05:42:00,
2013-05-14 22:52:00,58.0,32.0,-100.00,WNW,282,8.0,31.0,37,0.00,,,0.00,0.000000,,2013-05-15 05:52:00,
2013-05-14 23:00:00,59.0,35.0,-100.00,NNW,336,8.0,21.0,40,0.00,,,-99.99,0.000000,,2013-05-15 06:00:00,
2013-05-14 23:22:00,59.0,35.0,-100.00,NNW,336,8.0,21.0,40,0.00,,,-99.99,0.000000,,2013-05-15 06:22:00,
2013-05-14 23:32:00,59.0,35.0,-100.00,NNW,336,8.0,21.0,40,0.00,,,-99.99,0.000000,,2013-05-15 06:32:00,
2013-05-14 23:42:00,59.0,35.0,-100.00,NNW,336,8.0,21.0,40,0.00,,,-99.99,0.000000,,2013-05-15 06:42:00,
2013-05-14 23:52:00,59.0,35.0,-100.00,NNW,336,8.0,21.0,40,0.00,,,-99.99,0.000000,,2013-05-15 06:52:00,